SEKVV RJNS-RJOO

Flight info

Callsign SEKVV
Flight time 0h 58m
Altitude 30000
Route GAKKI Y55 KOHWA Y546 AGPUK
Aircraft TBM8/L-SDFGRWY/S

Departure

Time 2026-05-08 19:23
Airport Mount Fuji Shizuoka Airport (RJNS)

Arrival

Time 2026-05-08 20:21
Airport Osaka Itami International Airport (RJOO)
Time Latitude Longitude Altitude Speed Heading
2026-05-08 19:09 34.79717 138.17871 453 ft 0 kts 250°
2026-05-08 19:19 34.79717 138.17864 453 ft 5 kts 297°
2026-05-08 19:19 34.79752 138.17917 452 ft 12 kts 28°
2026-05-08 19:19 34.79739 138.17998 451 ft 14 kts 116°
2026-05-08 19:19 34.79696 138.18124 449 ft 17 kts 109°
2026-05-08 19:20 34.79651 138.18257 447 ft 15 kts 110°
2026-05-08 19:20 34.79639 138.18297 442 ft 15 kts 114°
2026-05-08 19:20 34.79576 138.18481 443 ft 14 kts 113°
2026-05-08 19:20 34.79535 138.18596 441 ft 15 kts 111°
2026-05-08 19:21 34.79495 138.18724 439 ft 17 kts 113°
2026-05-08 19:21 34.79450 138.18860 437 ft 18 kts 111°
2026-05-08 19:21 34.79404 138.19000 435 ft 17 kts 114°
2026-05-08 19:21 34.79380 138.19127 433 ft 14 kts 62°
2026-05-08 19:22 34.79441 138.19172 434 ft 8 kts 20°
2026-05-08 19:22 34.79485 138.19190 435 ft 8 kts 17°
2026-05-08 19:22 34.79534 138.19150 432 ft 14 kts 293°
2026-05-08 19:22 34.79639 138.18836 436 ft 67 kts 292°
2026-05-08 19:23 34.79826 138.18247 728 ft 78 kts 292°
2026-05-08 19:23 34.80046 138.17559 1007 ft 100 kts 292°
2026-05-08 19:23 34.80300 138.16701 1345 ft 115 kts 280°
2026-05-08 19:23 34.80114 138.15726 1909 ft 117 kts 268°
2026-05-08 19:24 34.79688 138.14857 2424 ft 139 kts 231°
2026-05-08 19:24 34.78636 138.14571 2814 ft 175 kts 183°
2026-05-08 19:24 34.77534 138.15324 3313 ft 191 kts 128°
2026-05-08 19:24 34.77069 138.16760 3821 ft 183 kts 90°
2026-05-08 19:25 34.76664 138.18271 4268 ft 195 kts 121°
2026-05-08 19:25 34.75742 138.19481 4773 ft 195 kts 141°
2026-05-08 19:25 34.74764 138.20636 5271 ft 196 kts 138°
2026-05-08 19:25 34.73829 138.21847 5759 ft 196 kts 138°
2026-05-08 19:26 34.72897 138.23049 6264 ft 194 kts 140°
2026-05-08 19:26 34.71888 138.24056 6713 ft 178 kts 172°
2026-05-08 19:26 34.70831 138.24047 7240 ft 133 kts 225°
2026-05-08 19:26 34.70423 138.23259 7762 ft 107 kts 274°
2026-05-08 19:27 34.70740 138.22422 8226 ft 111 kts 286°
2026-05-08 19:27 34.70912 138.21534 8709 ft 107 kts 274°
2026-05-08 19:27 34.71035 138.20630 9162 ft 109 kts 272°
2026-05-08 19:27 34.71129 138.19729 9694 ft 107 kts 270°
2026-05-08 19:28 34.71208 138.18843 10142 ft 106 kts 269°
2026-05-08 19:28 34.71279 138.17943 10578 ft 107 kts 269°
2026-05-08 19:28 34.71350 138.17040 11007 ft 107 kts 269°
2026-05-08 19:28 34.71417 138.16135 11433 ft 107 kts 268°
2026-05-08 19:29 34.71483 138.15226 11846 ft 108 kts 268°
2026-05-08 19:29 34.71555 138.14312 12252 ft 109 kts 269°
2026-05-08 19:29 34.71616 138.13389 12690 ft 110 kts 268°
2026-05-08 19:29 34.71682 138.12464 13129 ft 110 kts 268°
2026-05-08 19:30 34.71750 138.11532 13549 ft 111 kts 268°
2026-05-08 19:30 34.71818 138.10597 13934 ft 112 kts 268°
2026-05-08 19:30 34.71885 138.09653 14307 ft 113 kts 268°
2026-05-08 19:30 34.71954 138.08701 14682 ft 113 kts 268°
2026-05-08 19:31 34.72021 138.07757 15041 ft 114 kts 268°
2026-05-08 19:31 34.72090 138.06793 15402 ft 115 kts 268°
2026-05-08 19:31 34.72159 138.05822 15762 ft 116 kts 268°
2026-05-08 19:31 34.72229 138.04848 16133 ft 116 kts 267°
2026-05-08 19:32 34.72299 138.03867 16483 ft 117 kts 267°
2026-05-08 19:32 34.72369 138.02880 16841 ft 118 kts 266°
2026-05-08 19:32 34.72438 138.01885 17179 ft 119 kts 266°
2026-05-08 19:32 34.72511 138.00887 17488 ft 119 kts 266°
2026-05-08 19:33 34.72582 137.99884 17852 ft 119 kts 266°
2026-05-08 19:33 34.72653 137.98873 18216 ft 120 kts 266°
2026-05-08 19:33 34.72726 137.97864 18547 ft 119 kts 266°
2026-05-08 19:33 34.72797 137.96857 18879 ft 120 kts 266°
2026-05-08 19:34 34.72868 137.95851 19207 ft 119 kts 266°
2026-05-08 19:34 34.72939 137.94848 19523 ft 119 kts 266°
2026-05-08 19:34 34.72987 137.94184 19739 ft 119 kts 266°
2026-05-08 19:34 34.73056 137.93185 20061 ft 118 kts 266°
2026-05-08 19:35 34.73125 137.92188 20389 ft 118 kts 266°
2026-05-08 19:35 34.73195 137.91197 20709 ft 118 kts 266°
2026-05-08 19:35 34.73264 137.90205 21029 ft 117 kts 266°
2026-05-08 19:35 34.73355 137.88898 21445 ft 117 kts 266°
2026-05-08 19:36 34.73425 137.87911 21747 ft 117 kts 266°
2026-05-08 19:36 34.73471 137.87246 21958 ft 117 kts 266°
2026-05-08 19:36 34.73539 137.86259 22266 ft 117 kts 266°
2026-05-08 19:36 34.73608 137.85285 22566 ft 117 kts 266°
2026-05-08 19:37 34.73677 137.84288 22877 ft 117 kts 266°
2026-05-08 19:37 34.73745 137.83305 23180 ft 117 kts 265°
2026-05-08 19:37 34.73812 137.82334 23464 ft 117 kts 265°
2026-05-08 19:37 34.73880 137.81348 23705 ft 117 kts 265°
2026-05-08 19:38 34.73949 137.80360 23937 ft 118 kts 265°
2026-05-08 19:38 34.74017 137.79366 24166 ft 118 kts 265°
2026-05-08 19:38 34.74086 137.78366 24398 ft 119 kts 265°
2026-05-08 19:38 34.74155 137.77363 24621 ft 119 kts 265°
2026-05-08 19:39 34.74225 137.76354 24852 ft 120 kts 264°
2026-05-08 19:39 34.74295 137.75339 25079 ft 121 kts 264°
2026-05-08 19:39 34.74365 137.74319 25301 ft 121 kts 264°
2026-05-08 19:39 34.74436 137.73297 25522 ft 121 kts 264°
2026-05-08 19:40 34.74505 137.72269 25732 ft 122 kts 264°
2026-05-08 19:40 34.74575 137.71248 25948 ft 123 kts 264°
2026-05-08 19:40 34.74646 137.70210 26160 ft 124 kts 264°
2026-05-08 19:40 34.74718 137.69165 26375 ft 124 kts 264°
2026-05-08 19:41 34.74787 137.68116 26588 ft 124 kts 263°
2026-05-08 19:41 34.74734 137.67085 26806 ft 122 kts 258°
2026-05-08 19:41 34.74677 137.66051 27025 ft 123 kts 258°
2026-05-08 19:41 34.74618 137.65009 27240 ft 124 kts 258°
2026-05-08 19:42 34.74557 137.63962 27445 ft 124 kts 258°
2026-05-08 19:42 34.74497 137.62912 27650 ft 125 kts 258°
2026-05-08 19:42 34.74437 137.61855 27846 ft 126 kts 258°
2026-05-08 19:42 34.74377 137.60792 28065 ft 126 kts 258°
2026-05-08 19:43 34.74315 137.59724 28246 ft 127 kts 258°
2026-05-08 19:43 34.74254 137.58662 28448 ft 128 kts 258°
2026-05-08 19:43 34.74192 137.57584 28652 ft 128 kts 258°
2026-05-08 19:43 34.74129 137.56500 28840 ft 129 kts 258°
2026-05-08 19:44 34.74066 137.55414 29033 ft 129 kts 257°
2026-05-08 19:44 34.74002 137.54306 29228 ft 130 kts 258°
2026-05-08 19:44 34.73939 137.53208 29411 ft 130 kts 257°
2026-05-08 19:44 34.73875 137.52108 29597 ft 131 kts 257°
2026-05-08 19:45 34.73812 137.51012 29781 ft 132 kts 257°
2026-05-08 19:45 34.73747 137.49898 29966 ft 132 kts 257°
2026-05-08 19:45 34.73682 137.48780 30131 ft 133 kts 257°
2026-05-08 19:45 34.73616 137.47657 30297 ft 133 kts 257°
2026-05-08 19:46 34.73550 137.46528 30443 ft 134 kts 258°
2026-05-08 19:46 34.73485 137.45392 30610 ft 135 kts 257°
2026-05-08 19:46 34.73349 137.43106 30920 ft 136 kts 257°
2026-05-08 19:47 34.73278 137.41924 30932 ft 144 kts 258°
2026-05-08 19:47 34.73204 137.40679 30942 ft 151 kts 258°
2026-05-08 19:47 34.73130 137.39372 30949 ft 158 kts 258°
2026-05-08 19:47 34.73050 137.38003 30954 ft 165 kts 258°
2026-05-08 19:48 34.72967 137.36588 30956 ft 171 kts 259°
2026-05-08 19:48 34.72882 137.35143 30951 ft 176 kts 259°
2026-05-08 19:48 34.72794 137.33637 30954 ft 181 kts 259°
2026-05-08 19:48 34.72702 137.32092 30954 ft 185 kts 259°
2026-05-08 19:49 34.72608 137.30513 30953 ft 189 kts 259°
2026-05-08 19:49 34.72513 137.28905 30955 ft 192 kts 259°
2026-05-08 19:49 34.72415 137.27274 30955 ft 195 kts 260°
2026-05-08 19:49 34.72316 137.25617 30957 ft 198 kts 260°
2026-05-08 19:50 34.72215 137.23939 30955 ft 200 kts 260°
2026-05-08 19:50 34.72113 137.22246 30958 ft 202 kts 260°
2026-05-08 19:50 34.72010 137.20533 30961 ft 203 kts 260°
2026-05-08 19:50 34.71906 137.18813 30959 ft 205 kts 260°
2026-05-08 19:51 34.71800 137.17077 30971 ft 206 kts 260°
2026-05-08 19:51 34.71693 137.15333 30966 ft 207 kts 260°
2026-05-08 19:51 34.71587 137.13582 30967 ft 208 kts 260°
2026-05-08 19:51 34.71479 137.11827 30967 ft 209 kts 260°
2026-05-08 19:52 34.71371 137.10064 30969 ft 209 kts 260°
2026-05-08 19:52 34.71263 137.08320 30970 ft 210 kts 261°
2026-05-08 19:52 34.71154 137.06546 30970 ft 210 kts 261°
2026-05-08 19:52 34.71044 137.04773 30972 ft 210 kts 260°
2026-05-08 19:53 34.70933 137.02996 30974 ft 211 kts 261°
2026-05-08 19:53 34.70823 137.01224 30972 ft 211 kts 261°
2026-05-08 19:53 34.70712 136.99447 30972 ft 211 kts 261°
2026-05-08 19:53 34.70601 136.97667 30974 ft 211 kts 261°
2026-05-08 19:54 34.70472 136.95890 30966 ft 209 kts 257°
2026-05-08 19:54 34.70027 136.94220 30961 ft 208 kts 250°
2026-05-08 19:54 34.69536 136.92567 30961 ft 208 kts 251°
2026-05-08 19:54 34.69061 136.90905 30960 ft 208 kts 250°
2026-05-08 19:55 34.68580 136.89248 30959 ft 208 kts 250°
2026-05-08 19:55 34.68098 136.87594 30958 ft 208 kts 250°
2026-05-08 19:55 34.67614 136.85938 30958 ft 208 kts 250°
2026-05-08 19:55 34.67131 136.84281 30961 ft 208 kts 250°
2026-05-08 19:56 34.66647 136.82624 30961 ft 208 kts 250°
2026-05-08 19:56 34.66164 136.80969 30964 ft 208 kts 250°
2026-05-08 19:56 34.65686 136.79334 30962 ft 208 kts 250°
2026-05-08 19:56 34.65201 136.77676 30961 ft 208 kts 250°
2026-05-08 19:57 34.64718 136.76024 30964 ft 208 kts 250°
2026-05-08 19:57 34.64232 136.74363 30966 ft 208 kts 250°
2026-05-08 19:57 34.63747 136.72709 30965 ft 208 kts 250°
2026-05-08 19:57 34.63262 136.71053 30967 ft 208 kts 250°
2026-05-08 19:58 34.62776 136.69396 30967 ft 208 kts 250°
2026-05-08 19:58 34.62291 136.67742 30969 ft 208 kts 250°
2026-05-08 19:58 34.61809 136.66076 30646 ft 214 kts 251°
2026-05-08 19:58 34.61302 136.64332 30180 ft 224 kts 250°
2026-05-08 19:59 34.60771 136.62525 29659 ft 229 kts 251°
2026-05-08 19:59 34.60231 136.60694 29115 ft 230 kts 251°
2026-05-08 19:59 34.59688 136.58858 28593 ft 231 kts 251°
2026-05-08 19:59 34.59162 136.57043 28079 ft 232 kts 251°
2026-05-08 20:00 34.58618 136.55197 27571 ft 233 kts 251°
2026-05-08 20:00 34.58071 136.53347 27069 ft 233 kts 251°
2026-05-08 20:00 34.57524 136.51496 26565 ft 233 kts 251°
2026-05-08 20:00 34.56969 136.49633 26095 ft 238 kts 251°
2026-05-08 20:01 34.56408 136.47737 25612 ft 239 kts 252°
2026-05-08 20:01 34.55850 136.45827 25142 ft 241 kts 252°
2026-05-08 20:01 34.55285 136.43907 24678 ft 242 kts 252°
2026-05-08 20:01 34.54716 136.41984 24225 ft 240 kts 252°
2026-05-08 20:02 34.54175 136.40109 23771 ft 232 kts 252°
2026-05-08 20:02 34.53636 136.38311 23264 ft 223 kts 252°
2026-05-08 20:02 34.53053 136.36586 22735 ft 219 kts 250°
2026-05-08 20:02 34.52532 136.34851 22205 ft 220 kts 254°
2026-05-08 20:03 34.52055 136.33065 21703 ft 226 kts 253°
2026-05-08 20:03 34.51589 136.31248 21209 ft 231 kts 259°
2026-05-08 20:03 34.51358 136.29299 20723 ft 234 kts 261°
2026-05-08 20:03 34.51112 136.27352 20232 ft 226 kts 261°
2026-05-08 20:04 34.50889 136.25542 19644 ft 209 kts 261°
2026-05-08 20:04 34.50639 136.23850 19029 ft 199 kts 260°
2026-05-08 20:04 34.50410 136.22250 18443 ft 192 kts 261°
2026-05-08 20:04 34.50207 136.20664 17787 ft 188 kts 261°
2026-05-08 20:05 34.50007 136.19101 17104 ft 187 kts 261°
2026-05-08 20:05 34.49805 136.17547 16441 ft 185 kts 262°
2026-05-08 20:05 34.49606 136.16010 15795 ft 183 kts 262°
2026-05-08 20:05 34.49407 136.14485 15164 ft 183 kts 262°
2026-05-08 20:06 34.49206 136.12969 14542 ft 183 kts 262°
2026-05-08 20:06 34.48983 136.11366 14006 ft 201 kts 262°
2026-05-08 20:06 34.48759 136.09662 13471 ft 213 kts 263°
2026-05-08 20:06 34.48649 136.07832 12897 ft 223 kts 276°
2026-05-08 20:07 34.49059 136.05957 12371 ft 234 kts 285°
2026-05-08 20:07 34.49514 136.04074 12070 ft 231 kts 284°
2026-05-08 20:07 34.49938 136.02202 11778 ft 230 kts 284°
2026-05-08 20:07 34.50367 136.00359 11480 ft 230 kts 285°
2026-05-08 20:08 34.50806 135.98493 11184 ft 229 kts 285°
2026-05-08 20:08 34.51238 135.96643 10883 ft 227 kts 286°
2026-05-08 20:08 34.51667 135.94799 10594 ft 227 kts 287°
2026-05-08 20:08 34.52094 135.92959 10311 ft 226 kts 287°
2026-05-08 20:09 34.52516 135.91119 10028 ft 227 kts 287°
2026-05-08 20:09 34.52950 135.89269 9714 ft 228 kts 288°
2026-05-08 20:09 34.53381 135.87424 9398 ft 226 kts 288°
2026-05-08 20:09 34.53800 135.85604 9090 ft 227 kts 288°
2026-05-08 20:10 34.54227 135.83759 8774 ft 227 kts 288°
2026-05-08 20:10 34.54657 135.81908 8462 ft 227 kts 288°
2026-05-08 20:10 34.55083 135.80064 8149 ft 226 kts 288°
2026-05-08 20:10 34.55508 135.78227 7842 ft 226 kts 289°
2026-05-08 20:11 34.55932 135.76394 7544 ft 225 kts 289°
2026-05-08 20:11 34.56343 135.74583 7246 ft 225 kts 289°
2026-05-08 20:11 34.56755 135.72754 6951 ft 224 kts 289°
2026-05-08 20:11 34.57161 135.70923 6651 ft 223 kts 289°
2026-05-08 20:12 34.57554 135.69126 6355 ft 223 kts 289°
2026-05-08 20:12 34.58030 135.67345 6031 ft 220 kts 298°
2026-05-08 20:12 34.58981 135.65925 5633 ft 215 kts 319°
2026-05-08 20:12 34.60139 135.64823 5149 ft 200 kts 325°
2026-05-08 20:13 34.61249 135.63946 4657 ft 181 kts 328°
2026-05-08 20:13 34.62221 135.63089 4208 ft 164 kts 322°
2026-05-08 20:13 34.63044 135.62205 3749 ft 152 kts 317°
2026-05-08 20:13 34.63722 135.61365 3647 ft 133 kts 316°
2026-05-08 20:14 34.64329 135.60563 3521 ft 124 kts 313°
2026-05-08 20:14 34.64874 135.59787 3357 ft 120 kts 311°
2026-05-08 20:14 34.65406 135.59013 3153 ft 119 kts 318°
2026-05-08 20:14 34.66004 135.58385 3088 ft 109 kts 321°
2026-05-08 20:15 34.66581 135.57757 2903 ft 114 kts 316°
2026-05-08 20:15 34.67141 135.57106 2839 ft 106 kts 323°
2026-05-08 20:15 34.67721 135.56596 2800 ft 93 kts 323°
2026-05-08 20:15 34.68167 135.56123 2697 ft 84 kts 315°
2026-05-08 20:16 34.68564 135.55581 2537 ft 87 kts 313°
2026-05-08 20:16 34.68960 135.55025 2382 ft 86 kts 315°
2026-05-08 20:16 34.69371 135.54467 2181 ft 88 kts 317°
2026-05-08 20:16 34.69814 135.53974 2052 ft 86 kts 319°
2026-05-08 20:17 34.70250 135.53485 1972 ft 83 kts 320°
2026-05-08 20:17 34.70679 135.53018 1913 ft 83 kts 320°
2026-05-08 20:17 34.71114 135.52564 1844 ft 82 kts 314°
2026-05-08 20:17 34.71542 135.52107 1776 ft 81 kts 311°
2026-05-08 20:18 34.71937 135.51601 1686 ft 83 kts 311°
2026-05-08 20:18 34.72330 135.51094 1605 ft 83 kts 313°
2026-05-08 20:18 34.72759 135.50599 1488 ft 87 kts 313°
2026-05-08 20:18 34.73191 135.50066 1320 ft 88 kts 314°
2026-05-08 20:19 34.73601 135.49531 1149 ft 86 kts 315°
2026-05-08 20:19 34.74020 135.49024 1019 ft 84 kts 317°
2026-05-08 20:19 34.74444 135.48527 889 ft 85 kts 316°
2026-05-08 20:19 34.74876 135.48020 743 ft 87 kts 317°
2026-05-08 20:20 34.75296 135.47507 639 ft 85 kts 317°
2026-05-08 20:20 34.75716 135.46993 550 ft 88 kts 315°
2026-05-08 20:20 34.76158 135.46475 418 ft 87 kts 313°
2026-05-08 20:20 34.76573 135.45965 257 ft 81 kts 316°
2026-05-08 20:21 34.76961 135.45495 119 ft 77 kts 313°
2026-05-08 20:21 34.77210 135.45193 51 ft 74 kts 314°
2026-05-08 20:21 34.77536 135.44801 39 ft 56 kts 314°
2026-05-08 20:21 34.77752 135.44540 39 ft 28 kts 320°
2026-05-08 20:22 34.77910 135.44409 41 ft 28 kts 335°
2026-05-08 20:22 34.78093 135.44343 40 ft 20 kts 348°
2026-05-08 20:22 34.78191 135.44333 39 ft 15 kts
2026-05-08 20:22 34.78272 135.44336 41 ft 9 kts
2026-05-08 20:23 34.78353 135.44334 41 ft 14 kts 359°
2026-05-08 20:23 34.78446 135.44336 40 ft 16 kts 358°
2026-05-08 20:23 34.78508 135.44334 40 ft 0 kts 360°
2026-05-08 20:23 34.78527 135.44366 40 ft 12 kts 93°
2026-05-08 20:24 34.78523 135.44438 40 ft 5 kts 134°
2026-05-08 20:24 34.78502 135.44451 40 ft 0 kts 153°